2023/03/11 00:00:00,13.7, 2.2
2023/03/11 00:10:00,13.6, 2.1
2023/03/11 00:20:00,13.6, 2.0
2023/03/11 00:30:00,13.6, 2.0
2023/03/11 00:40:00,13.6, 2.4
2023/03/11 00:50:00,13.6, 2.1
2023/03/11 01:00:00,13.6, 2.8
2023/03/11 01:10:00,13.6, 2.0
2023/03/11 01:20:00,13.6, 2.0
2023/03/11 01:30:00,13.6, 1.9
2023/03/11 01:40:00,13.6, 1.7
2023/03/11 01:50:00,13.6, 2.1
2023/03/11 02:00:00,13.6, 1.9
2023/03/11 02:10:00,13.6, 2.2
2023/03/11 02:20:00,13.5, 2.0
2023/03/11 02:30:00,13.6, 2.1
2023/03/11 02:40:00,13.6, 1.8
2023/03/11 02:50:00,13.5, 2.0
2023/03/11 03:00:00,13.6, 2.4
2023/03/11 03:10:00,13.6, 2.1
2023/03/11 03:20:00,13.6, 2.4
2023/03/11 03:30:00,13.6, 1.9
2023/03/11 03:40:00,13.6, 2.0
2023/03/11 03:50:00,13.6, 1.9
2023/03/11 04:00:00,13.6, 1.9
2023/03/11 04:10:00,13.7, 2.0
2023/03/11 04:20:00,13.6, 2.0
2023/03/11 04:30:00,13.6, 2.4
2023/03/11 04:40:00,13.6, 2.0
2023/03/11 04:50:00,13.6, 1.9
2023/03/11 05:00:00,13.6, 2.1
2023/03/11 05:10:00,13.7, 2.4
2023/03/11 05:20:00,13.7, 2.2
2023/03/11 05:30:00,13.7, 2.1
2023/03/11 05:40:00,13.7, 2.4
2023/03/11 05:50:00,13.6, 2.2
2023/03/11 06:00:00,13.7, 2.4
2023/03/11 06:10:00,13.6, 2.4
2023/03/11 06:20:00,13.7, 2.4
2023/03/11 06:30:00,13.7, 2.2
2023/03/11 06:40:00,13.7, 2.6
2023/03/11 06:50:00,13.8, 2.7
2023/03/11 07:00:00,13.8, 3.0
2023/03/11 07:10:00,13.9, 3.3
2023/03/11 07:20:00,13.9, 3.5
2023/03/11 07:30:00,13.9, 4.0
2023/03/11 07:40:00,13.7, 4.9
2023/03/11 07:50:00,13.4, 6.3
2023/03/11 08:00:00,13.5, 7.2
2023/03/11 08:10:00,13.5, 8.6
2023/03/11 08:20:00,13.3, 9.0
2023/03/11 08:30:00,13.5, 9.7
2023/03/11 08:40:00,13.6,11.0
2023/03/11 08:50:00,13.6,12.0
2023/03/11 09:00:00,13.7,13.1
2023/03/11 09:10:00,13.7,13.9
2023/03/11 09:20:00,13.8,14.5
2023/03/11 09:30:00,13.8,15.4
2023/03/11 09:40:00,13.6,15.7
2023/03/11 09:50:00,13.2,16.3
2023/03/11 10:00:00,13.2,17.2
2023/03/11 10:10:00,13.4,18.8
2023/03/11 10:20:00,13.3,19.0
2023/03/11 10:30:00,13.1,19.3
2023/03/11 10:40:00,12.9,19.3
2023/03/11 10:50:00,12.7,21.2
2023/03/11 11:00:00,12.5,20.9
2023/03/11 11:10:00,12.3,21.5
2023/03/11 11:20:00,12.1,21.9
2023/03/11 11:30:00,12.0,21.7
2023/03/11 11:40:00,11.8,21.8
2023/03/11 11:50:00,11.4,23.4
2023/03/11 12:00:00,11.1,21.7
2023/03/11 12:10:00,10.9,24.8
2023/03/11 12:20:00,10.8,22.5
2023/03/11 12:30:00,10.7,22.0
2023/03/11 12:40:00,10.6,23.6
2023/03/11 12:50:00,10.2,24.7
2023/03/11 13:00:00,10.1,23.1
2023/03/11 13:10:00, 9.8,25.6
2023/03/11 13:20:00, 9.6,25.7
2023/03/11 13:30:00, 9.2,26.7
2023/03/11 13:40:00, 9.0,26.1
2023/03/11 13:50:00, 8.8,27.9
2023/03/11 14:00:00, 8.6,26.9
2023/03/11 14:10:00, 8.4,24.3
2023/03/11 14:20:00, 8.2,27.8
2023/03/11 14:30:00, 8.0,27.1
2023/03/11 14:40:00, 8.0,27.1
2023/03/11 14:50:00, 7.9,28.8
2023/03/11 15:00:00, 7.8,28.0
2023/03/11 15:10:00, 7.6,28.7
2023/03/11 15:20:00, 7.5,27.7
2023/03/11 15:30:00, 7.5,27.9
2023/03/11 15:40:00, 6.6,27.2
2023/03/11 15:50:00, 5.9,28.6
2023/03/11 16:00:00, 5.5,25.9
2023/03/11 16:10:00, 5.2,23.1
2023/03/11 16:20:00, 4.9,23.5
2023/03/11 16:30:00, 4.1,22.8
2023/03/11 16:40:00, 3.8,22.9
2023/03/11 16:50:00, 3.5,23.6
2023/03/11 17:00:00, 3.4,21.6
2023/03/11 17:10:00, 3.3,17.7
2023/03/11 17:20:00, 3.1,15.0
2023/03/11 17:30:00, 2.7,12.7
2023/03/11 17:40:00, 1.6,11.2
2023/03/11 17:50:00, 0.0,10.5
2023/03/11 18:00:00, 0.0, 9.8
2023/03/11 18:10:00, 0.0, 9.2
2023/03/11 18:20:00, 0.0, 8.6
2023/03/11 18:30:00, 0.0, 8.2
2023/03/11 18:40:00, 0.0, 8.0
2023/03/11 18:50:00, 0.0, 7.6
2023/03/11 19:00:00, 0.0, 7.3
2023/03/11 19:10:00, 0.0, 7.0
2023/03/11 19:20:00, 0.0, 6.7
2023/03/11 19:30:00, 0.0, 6.4
2023/03/11 19:40:00, 0.0, 6.1
2023/03/11 19:50:00, 0.0, 6.0
2023/03/11 20:00:00, 0.0, 6.3
2023/03/11 20:10:00, 0.0, 6.0
2023/03/11 20:20:00, 0.0, 5.8
2023/03/11 20:30:00, 0.0, 5.7
2023/03/11 20:40:00, 0.0, 5.4
2023/03/11 20:50:00, 0.0, 5.3
2023/03/11 21:00:00, 0.0, 5.2
2023/03/11 21:10:00, 0.0, 5.3
2023/03/11 21:20:00, 0.0, 5.2
2023/03/11 21:30:00, 0.0, 5.1
2023/03/11 21:40:00, 0.0, 5.2
2023/03/11 21:50:00, 0.0, 5.0
2023/03/11 22:00:00, 0.0, 5.1
2023/03/11 22:10:00, 0.0, 5.0
2023/03/11 22:20:00, 0.1, 4.9
2023/03/11 22:30:00, 0.1, 4.8
2023/03/11 22:40:00, 0.1, 5.1
2023/03/11 22:50:00, 0.0, 4.8
2023/03/11 23:00:00, 0.0, 4.8
2023/03/11 23:10:00, 0.0, 4.7
2023/03/11 23:20:00, 0.0, 4.8
2023/03/11 23:30:00, 0.0, 4.5
2023/03/11 23:40:00, 0.0, 4.5
2023/03/11 23:50:00, 0.0, 4.5
